Content
SEND FEEDBACK

Daily
Averages
Monthly
Summary
Philippines

QUEZON CITY, PHILIPPINES


Home > Asia > Philippines
Elevation: 46 meters     Latitude: 14 39N     Longitude: 121 03E

WEATHER
 
SELECT A DAY
Number of Records: 179,143;   Date Range: 7/1/96 - 12/26/14
 
SHARE

PRINT THIS DATA

[ ← Previous Day ]
WEATHER ALMANAC - 16 NOVEMBER, 2013
[ Next Day → ]
[ °F ]   °C
Weather ElementAverageHighLow
Temperature28.8 °C32.2 °C (2:00 pm)25 °C (3:00 am)
Dewpoint22.7 °C25 °C (3:00 am)21 °C (9:00 am)
Humidity68.9 %100 % (3:00 am)46 % (2:00 pm)
Barometer1011.5 hPa1013.2 hPa (8:00 am)1009.1 hPa (2:00 pm)
Wind Speed10.3 km/h20.4 km/h (2:00 pm)
Weather ElementAverage
Visibility9.8 km
Wind DirectionESE (102.3 °)

Weather ElementTotal
Precipitation---
Cooling Degree Days10.3 (Base 18.3)
Growing Degree Days18.6 (Base 10)
Averaged from 31 records on 16 November, 2013
WEATHER CONDITIONS BREAKOUT
WIND DIRECTION BREAKOUT
WEATHER BY HOUR - 16 NOVEMBER, 2013
[ °F ]   °C
Local TimeTemperatureDewpointHumidityBarometerVisibilityWind DirectionWind SpeedGust SpeedPrecipitationEventsConditions
1:00 AM27 °C24 °C84 %1012.2 hPa10 kmESE (110°)7.4 km/hPartly Cloudy
2:00 AM26.7 °C23.9 °C79 %1012.2 hPa9.7 kmESE (110°)7.2 km/hHaze
2:00 AM27 °C24 °C84 %1012.2 hPa10 kmESE (120°)7.4 km/hPartly Cloudy
3:00 AM25 °C25 °C100 %1011.2 hPa10 kmNE (50°)7.4 km/hPartly Cloudy
4:00 AM26 °C24 °C89 %1011.2 hPa10 kmVariable3.7 km/hScattered Clouds
5:00 AM25.6 °C23.9 °C86 %1011.5 hPa9.7 kmCalmHaze
5:00 AM26 °C24 °C89 %1011.2 hPa10 kmCalmPartly Cloudy
6:00 AM26 °C24 °C89 %1012.2 hPa10 kmSouth (170°)5.6 km/hScattered Clouds
7:00 AM27 °C24 °C84 %1012.2 hPa10 kmEast (100°)3.7 km/hPartly Cloudy
8:00 AM28.9 °C21.7 °C58 %1013.2 hPa9.7 kmESE (120°)3.5 km/hPartly Cloudy
8:00 AM29 °C22 °C66 %1013.2 hPa10 kmESE (120°)3.7 km/hPartly Cloudy
9:00 AM30 °C21 °C58 %1013.2 hPa10 kmEast (80°)9.3 km/hPartly Cloudy
10:00 AM31 °C21 °C55 %1013.2 hPa10 kmEast (100°)11.1 km/hPartly Cloudy
11:00 AM31.7 °C22.2 °C49 %1012.9 hPa9.7 kmESE (120°)10.8 km/hScattered Clouds
11:00 AM32 °C22 °C55 %1012.2 hPa10 kmESE (120°)11.1 km/hPartly Cloudy
12:00 PM32 °C24 °C62 %1011.2 hPa10 kmESE (110°)13 km/hPartly Cloudy
1:00 PM32 °C21 °C52 %1010.2 hPa10 kmEast (90°)16.7 km/hPartly Cloudy
2:00 PM32.2 °C22.2 °C46 %1009.8 hPa9.7 kmESE (110°)18 km/hScattered Clouds
2:00 PM32 °C22 °C55 %1009.1 hPa10 kmESE (110°)20.4 km/hPartly Cloudy
3:00 PM32 °C21 °C52 %1009.1 hPa10 kmESE (110°)20.4 km/hPartly Cloudy
4:00 PM31 °C22 °C58 %1009.1 hPa10 kmESE (110°)20.4 km/hPartly Cloudy
5:00 PM30.6 °C21.1 °C47 %1010.2 hPa9.7 kmESE (110°)18 km/hScattered Clouds
5:00 PM30 °C21 °C58 %1010.2 hPa10 kmESE (110°)16.7 km/hPartly Cloudy
6:00 PM29 °C23 °C70 %1011.2 hPa10 kmESE (110°)14.8 km/hPartly Cloudy
7:00 PM29 °C23 °C70 %1011.2 hPa10 kmESE (110°)11.1 km/hPartly Cloudy
8:00 PM27.8 °C22.2 °C65 %1012.2 hPa9.7 kmEast (100°)7.2 km/hScattered Clouds
8:00 PM28 °C22 °C70 %1012.2 hPa10 kmEast (100°)7.4 km/hPartly Cloudy
9:00 PM28 °C23 °C74 %1012.2 hPa10 kmSE (130°)9.3 km/hPartly Cloudy
10:00 PM27 °C23 °C79 %1012.2 hPa10 kmESE (120°)9.3 km/hPartly Cloudy
11:00 PM27.2 °C23.3 °C73 %1012.2 hPa9.7 kmESE (110°)10.8 km/hScattered Clouds
11:00 PM27 °C23 °C79 %1012.2 hPa10 kmESE (110°)11.1 km/hPartly Cloudy
Hourly data recorded from RPLL, located 0 kilometers away from Quezon City, Philippines







STORIES FROM OUR PARTNERS